User: anonymous   Login
Location: Unspecified
(0.0000°N, 0.0000°E)
Time: 02:01:23
(UTC+00:00)
Language:

Oscar 10/S400 - Orbit

View from above orbital plane
View from above orbital plane
View from above satellite
View from above satellite

Ground track
Ground track

The orbit data is extracted from the following two-line orbital elements,

1 14129U 83058B   24100.90508073  .00000181  00000-0  00000-0 0  9990
2 14129  27.4605 349.8976 6034046 259.2776  31.3472  2.05865006279055
Epoch (UTC): 09 April 2024 21:43:18
Eccentricity: 0.6034046
inclination: 27.4605°
perigee height: 3974 km
apogee height: 35474 km
right ascension of ascending node: 349.8976°
argument of perigee: 259.2776°
revolutions per day: 2.05865006
mean anomaly at epoch: 31.3472°
orbit number at epoch: 27905

The dashed part of the orbit path shows where the satellite is in the earth's shadow,  

DLR